Location: Edisto_Beach
(32.4790°N, 80.3350°W)
Time: 19:56:46
(UTC-05:00)

Amateur Radio Satellites - All Passes

Search period start: 19 December 2014 19:26
Search period end: 20 December 2014 19:26
Location: Edisto_Beach, 32.4790°N, 80.3350°W

Satellite Date Start Highest point End Downlink Frequencies (MHz)
Time Altitude Azimuth
HO-68 19 Dec 19:35:52 19:42:07 34° 66° (ENE) 19:48:22 435.675
BRITE-PL 19 Dec 19:37:32 19:40:08 16° 70° (ENE) 19:42:43 437.365/2234.400
DANDE 19 Dec 19:38:08 19:43:25 19° 71° (ENE) 19:49:02 436.750
STRAND 1 19 Dec 19:44:51 19:49:43 47° 287° (WNW) 19:54:34 437.568
CANX-2 19 Dec 19:46:44 19:49:59 22° 71° (ENE) 19:53:15 2200.000
PRISM 19 Dec 19:54:47 19:55:29 10° 294° (WNW) 19:56:11 437.425
CUBESAT XI-V 19 Dec 20:02:49 20:06:18 22° 290° (WNW) 20:09:46 437.345
GOMX 1 19 Dec 20:08:47 20:12:15 26° 72° (ENE) 20:15:42 467.674
COMPASS 1 19 Dec 20:11:20 20:14:53 27° 72° (ENE) 20:18:28 437.405
SEEDS 19 Dec 20:15:00 20:18:52 36° 73° (ENE) 20:22:47 437.485
CUTE 1.7 + AOD 2 19 Dec 20:16:46 20:20:50 46° 75° (ENE) 20:24:55 437.475
RS-15 19 Dec 20:19:18 20:29:30 37° 50° (NE) 20:40:03 29.354- 29.394
SO-50 19 Dec 20:25:50 20:29:30 25° 110° (ESE) 20:33:15 436.795
DX 1 19 Dec 20:27:01 20:29:17 14° 67° (ENE) 20:31:33 434.975-435.025
CUSAT 1 19 Dec 20:33:07 20:40:53 55° 79° (E) 20:49:11 437.405
DELFI C3 19 Dec 20:35:20 20:38:03 17° 70° (ENE) 20:40:47 145.870
DOVE 4 19 Dec 20:38:38 20:42:33 43° 74° (ENE) 20:46:29 437.250
Oscar 11 19 Dec 20:49:36 20:53:28 33° 73° (ENE) 20:57:21 145.826/435.025
UKube-1 19 Dec 20:57:31 21:01:19 31° 72° (ENE) 21:05:09 .
CUBEBUG 2 19 Dec 21:02:28 21:05:58 27° 72° (ENE) 21:09:31 437.445
CINEMA 3 19 Dec 21:11:35 21:15:39 62° 76° (ENE) 21:19:49 145.822/145.860
AAUSAT CUBESAT 2 19 Dec 21:11:40 21:15:47 58° 260° (W) 21:19:57 437.432
ISS 19 Dec 21:13:51 21:17:02 50° 42° (NE) 21:20:12 145.825
BRITE-PL 19 Dec 21:14:43 21:18:26 29° 262° (W) 21:22:05 437.365/2234.400
VELOX 1 19 Dec 21:16:43 21:19:28 16° 68° (ENE) 21:22:13 145.980
ZACube-1 19 Dec 21:17:32 21:21:07 29° 72° (ENE) 21:24:45 437.345
DANDE 19 Dec 21:19:25 21:27:22 83° 264° (W) 21:36:06 436.750
CANX-2 19 Dec 21:22:18 21:25:45 24° 264° (W) 21:29:14 2200.000
HO-68 19 Dec 21:23:01 21:29:36 39° 261° (W) 21:36:14 435.675
UWE-3 19 Dec 21:42:05 21:46:13 73° 77° (ENE) 21:50:26 435.000/436.395/437.385
FUNcube-1 19 Dec 21:44:00 21:48:05 62° 76° (ENE) 21:52:16 145.935
GOMX 1 19 Dec 21:47:32 21:50:22 18° 265° (W) 21:53:11 467.674
COMPASS 1 19 Dec 21:47:36 21:50:33 19° 265° (W) 21:53:32 437.405
SEEDS 19 Dec 21:52:36 21:54:47 14° 267° (W) 21:57:00 437.485
CUTE 1.7 + AOD 2 19 Dec 21:55:44 21:56:57 11° 268° (W) 21:58:09 437.475
AISAT 19 Dec 21:57:33 22:01:50 51° 74° (ENE) 22:06:07 437.250
DX 1 19 Dec 22:01:03 22:05:08 40° 261° (W) 22:09:14 434.975-435.025
SO-50 19 Dec 22:06:04 22:09:54 27° 306° (NW) 22:13:50 436.795
QB50P2 19 Dec 22:07:55 22:09:01 11° 93° (E) 22:10:07 145.880/145.840
CUBEBUG 1 19 Dec 22:08:15 22:11:38 22° 70° (ENE) 22:15:00 437.445
DELFI C3 19 Dec 22:09:31 22:13:04 28° 263° (W) 22:16:38 145.870
50 SAT 19 Dec 22:11:04 22:14:59 59° 76° (ENE) 22:18:57 437.505
ANTELSAT 19 Dec 22:11:55 22:15:42 24° 96° (E) 22:19:28 437.575/2403.000
POLYITAN 1 19 Dec 22:15:17 22:17:34 14° 94° (E) 22:19:51 437.675
CUSAT 1 19 Dec 22:16:59 22:23:36 29° 272° (W) 22:30:34 437.405
NANOSAT C BR1 19 Dec 22:18:15 22:20:43 15° 94° (E) 22:23:10 145.865
DOVE 4 19 Dec 22:19:48 22:20:32 10° 267° (W) 22:21:16 437.250
HUMSAT D 19 Dec 22:25:19 22:29:23 69° 259° (W) 22:33:32 437.325/437.525
Oscar 11 19 Dec 22:26:59 22:29:40 16° 266° (W) 22:32:22 145.826/435.025
RS-15 19 Dec 22:31:14 22:42:19 60° 249° (WSW) 22:53:55 29.354- 29.394
QB50P1 19 Dec 22:31:42 22:35:03 22° 96° (E) 22:38:24 145.935-145.965
UKube-1 19 Dec 22:34:37 22:37:29 17° 265° (W) 22:40:21 .
BEESAT 3 19 Dec 22:36:10 22:40:02 36° 58° (ENE) 22:43:51 437.485
AIST 2 19 Dec 22:38:08 22:40:55 17° 52° (NE) 22:43:40 435.215
CUBEBUG 2 19 Dec 22:39:48 22:42:39 18° 265° (W) 22:45:32 437.445
YUBILEINY 19 Dec 22:47:07 22:53:03 21° 82° (E) 22:58:56 435.215
TIGRISAT 19 Dec 22:47:22 22:52:01 59° 101° (E) 22:56:40 435.000
ESTCUBE 1 19 Dec 22:50:01 22:54:33 77° 76° (ENE) 22:59:06 437.505/2401.250
PCSat 19 Dec 22:51:39 22:56:03 25° 56° (NE) 23:00:26 145.827
VELOX 1 19 Dec 22:51:40 22:55:43 35° 261° (W) 22:59:47 145.980
ISS 19 Dec 22:52:54 22:53:14 10° 235° (SW) 22:53:34 145.825
ZACube-1 19 Dec 22:54:47 22:57:29 17° 266° (W) 23:00:14 437.345
POPSAT HIP 1 19 Dec 22:59:36 23:03:45 50° 100° (E) 23:07:53 437.405
DANDE 19 Dec 23:06:05 23:10:01 14° 276° (W) 23:14:06 436.750
BEESAT 2 19 Dec 23:14:55 23:19:06 86° 243° (WSW) 23:23:13 435.950
UNISAT 6 19 Dec 23:16:00 23:20:40 63° 285° (WNW) 23:25:20 437.425
TISAT 1 19 Dec 23:19:28 23:23:15 33° 73° (ENE) 23:27:01 437.305
SPROUT 19 Dec 23:19:41 23:23:26 31° 72° (ENE) 23:27:11 437.525
DUCHIFAT 1 19 Dec 23:28:03 23:32:17 71° 284° (WNW) 23:36:32 145.980
BUGSAT 1 19 Dec 23:31:45 23:35:48 80° 283° (WNW) 23:39:53 437.445
AISAT 19 Dec 23:37:42 23:38:40 11° 267° (W) 23:39:39 437.250
QB50P2 19 Dec 23:41:01 23:45:07 47° 286° (WNW) 23:49:13 145.880/145.840
CUBEBUG 1 19 Dec 23:44:14 23:47:50 25° 263° (W) 23:51:26 437.445
ANTELSAT 19 Dec 23:48:24 23:52:23 28° 289° (WNW) 23:56:23 437.575/2403.000
POLYITAN 1 19 Dec 23:49:38 23:53:35 37° 287° (WNW) 23:57:33 437.675
NANOSAT C BR1 19 Dec 23:52:47 23:56:38 34° 287° (WNW) 00:00:29 145.865
BEESAT 20 Dec 00:05:58 00:08:59 17° 67° (ENE) 00:12:00 436.000
QB50P1 20 Dec 00:07:26 00:10:49 23° 289° (WNW) 00:14:12 145.935-145.965
BEESAT 3 20 Dec 00:15:33 00:17:51 15° 252° (WSW) 00:20:08 437.485
AIST 2 20 Dec 00:15:41 00:19:40 38° 247° (WSW) 00:23:34 435.215
M-CUBED/EXP-1 PRIME 20 Dec 00:18:32 00:21:21 16° 62° (ENE) 00:24:11 437.505
TIGRISAT 20 Dec 00:26:36 00:28:12 12° 294° (WNW) 00:29:49 435.000
PCSat 20 Dec 00:34:34 00:39:30 37° 251° (WSW) 00:44:25 145.827
POPSAT HIP 1 20 Dec 00:37:58 00:39:09 11° 293° (WNW) 00:40:21 437.405
Oscar 19 20 Dec 00:38:57 00:41:21 13° 93° (E) 00:43:45 437.125/150
YUBILEINY 20 Dec 00:40:15 00:48:57 67° 278° (W) 00:57:38 435.215
TISAT 1 20 Dec 00:56:41 00:59:07 15° 265° (W) 01:01:33 437.305
SPROUT 20 Dec 00:56:45 00:59:31 17° 265° (W) 01:02:18 437.525
O/OREOS (USA 219) 20 Dec 01:02:06 01:06:32 71° 290° (WNW) 01:10:59 437.305
SWISSCUBE 20 Dec 01:16:25 01:21:12 74° 258° (WSW) 01:26:00 437.505
ITUPSAT 1 20 Dec 01:16:29 01:21:18 82° 257° (WSW) 01:26:08 437.325
STARS 20 Dec 01:23:05 01:25:01 13° 67° (ENE) 01:26:57 437.465
KKS-1 20 Dec 01:23:26 01:26:42 21° 69° (ENE) 01:29:58 437.445
AUBIESAT-1 20 Dec 01:26:04 01:30:48 75° 72° (ENE) 01:35:42 437.475
BEESAT 20 Dec 01:41:56 01:46:27 41° 261° (W) 01:50:59 436.000
M-CUBED/EXP-1 PRIME 20 Dec 01:51:12 01:55:49 52° 256° (WSW) 02:00:37 437.505
VERMONT LUNAR 20 Dec 02:10:01 02:13:04 27° 144° (SE) 02:16:07 437.305
Oscar 19 20 Dec 02:15:52 02:20:58 57° 286° (WNW) 02:26:02 437.125/150
PHONESAT 2.4 20 Dec 02:20:13 02:23:00 21° 143° (SE) 02:25:47 2401.200-2431.200
Gurwin Techsat 1B 20 Dec 02:20:23 02:25:04 31° 97° (E) 02:29:43 435.225
ITAMSAT 1 20 Dec 02:29:41 02:34:50 67° 102° (ESE) 02:39:57 435.822/435.867
HORYU 2 20 Dec 02:49:26 02:52:48 20° 96° (E) 02:56:09 437.375
STARS 20 Dec 02:56:52 03:01:03 45° 260° (W) 03:05:16 437.465
KKS-1 20 Dec 02:59:21 03:03:07 28° 263° (W) 03:06:56 437.445
AO-7 20 Dec 03:03:12 03:07:47 16° 93° (E) 03:12:21 29.400- 29.500
VERMONT LUNAR 20 Dec 03:47:50 03:51:16 49° 338° (NNW) 03:54:43 437.305
PHONESAT 2.4 20 Dec 03:57:52 04:01:28 64° 336° (NNW) 04:05:04 2401.200-2431.200
Gurwin Techsat 1B 20 Dec 04:00:31 04:04:50 26° 291° (WNW) 04:09:08 435.225
AIST 1 20 Dec 04:01:39 04:05:56 77° 83° (E) 04:10:10
MOZHAYETS 4 20 Dec 04:02:45 04:06:54 34° 72° (ENE) 04:11:05
ITAMSAT 1 20 Dec 04:11:46 04:13:41 12° 296° (WNW) 04:15:36 435.822/435.867
HORYU 2 20 Dec 04:25:32 04:29:24 29° 289° (WNW) 04:33:16 437.375
GONETS M04 20 Dec 04:40:49 04:47:38 26° 84° (E) 04:54:26
AO-7 20 Dec 04:52:52 05:01:16 85° 288° (WNW) 05:09:37 29.400- 29.500
PRISM 20 Dec 05:03:28 05:06:39 21° 70° (ENE) 05:09:51 437.425
STRAND 1 20 Dec 05:19:30 05:22:19 15° 66° (ENE) 05:25:07 437.568
Cubesat XI-IV 20 Dec 05:22:07 05:24:05 12° 93° (E) 05:26:03 437.490
CUBESAT XI-V 20 Dec 05:25:06 05:28:10 18° 69° (ENE) 05:31:14 437.345
VERMONT LUNAR 20 Dec 05:27:14 05:30:04 22° 355° (N) 05:32:55 437.305
JAS-2 20 Dec 05:28:47 05:34:20 84° 103° (ESE) 05:39:31 435.910
PHONESAT 2.4 20 Dec 05:37:33 05:40:34 24° 352° (N) 05:43:36 2401.200-2431.200
MOZHAYETS 4 20 Dec 05:40:58 05:44:09 18° 266° (W) 05:47:21
CUTE-I 20 Dec 05:53:25 05:57:51 27° 97° (E) 06:02:17 437.470
GONETS M04 20 Dec 06:35:10 06:43:46 57° 280° (W) 06:52:27
PRISM 20 Dec 06:38:32 06:42:00 25° 263° (W) 06:45:30 437.425
SO-50 20 Dec 06:40:55 06:45:51 78° 62° (ENE) 06:50:44 436.795
AO-7 20 Dec 06:48:21 06:52:48 16° 305° (NW) 06:57:16 29.400- 29.500
STRAND 1 20 Dec 06:56:02 07:01:00 53° 259° (W) 07:06:00 437.568
Cubesat XI-IV 20 Dec 06:59:15 07:04:31 64° 286° (WNW) 07:09:45 437.490
CUBESAT XI-V 20 Dec 07:00:58 07:05:17 37° 262° (W) 07:09:36 437.345
VERMONT LUNAR 20 Dec 07:06:00 07:09:04 27° 12° (NNE) 07:12:07 437.305
PHONESAT 2.4 20 Dec 07:16:52 07:19:56 25° 10° (N) 07:23:01 2401.200-2431.200
CUTE-I 20 Dec 07:33:15 07:37:49 30° 290° (WNW) 07:42:23 437.470
CUTE 1.7 + AOD 2 20 Dec 08:09:09 08:10:39 12° 93° (E) 08:12:08 437.475
GOMX 1 20 Dec 08:15:23 08:17:51 14° 94° (E) 08:20:22 467.674
MaSat-1 20 Dec 08:28:52 08:31:03 31° 110° (ESE) 08:33:09 437.345
DOVE 4 20 Dec 08:42:15 08:45:50 20° 96° (E) 08:49:32 437.250
VERMONT LUNAR 20 Dec 08:44:07 08:47:39 87° 208° (SSW) 08:51:11 437.305
HO-68 20 Dec 08:55:08 09:02:06 53° 102° (ESE) 09:09:00 435.675
PHONESAT 2.4 20 Dec 08:55:22 08:59:00 74° 26° (NNE) 09:02:37 2401.200-2431.200
AAUSAT CUBESAT 2 20 Dec 09:00:11 09:03:57 31° 97° (E) 09:07:41 437.432
ANTELSAT 20 Dec 09:09:03 09:10:34 12° 66° (ENE) 09:12:05 437.575/2403.000
CINEMA 3 20 Dec 09:11:11 09:15:04 24° 96° (E) 09:19:01 145.822/145.860
CANX-2 20 Dec 09:11:33 09:15:53 82° 102° (ESE) 09:20:11 2200.000
BRITE-PL 20 Dec 09:22:09 09:26:56 77° 283° (WNW) 09:32:07 437.365/2234.400
COMPASS 1 20 Dec 09:34:46 09:39:02 81° 283° (WNW) 09:43:16 437.405
UWE-3 20 Dec 09:37:13 09:40:51 23° 96° (E) 09:44:31 435.000/436.395/437.385
FUNcube-1 20 Dec 09:38:04 09:41:15 19° 95° (E) 09:44:27 145.935
SEEDS 20 Dec 09:39:44 09:43:57 57° 284° (WNW) 09:48:07 437.485
CUSAT 1 20 Dec 09:41:20 09:44:32 62° 94° (E) 09:48:45 437.405
TIGRISAT 20 Dec 09:42:25 09:46:07 28° 71° (ENE) 09:49:53 435.000
CUTE 1.7 + AOD 2 20 Dec 09:42:38 09:46:45 45° 286° (WNW) 09:50:50 437.475
POPSAT HIP 1 20 Dec 09:49:08 09:52:18 21° 70° (ENE) 09:55:28 437.405
GOMX 1 20 Dec 09:51:22 09:56:03 52° 285° (WNW) 10:01:03 467.674
DX 1 20 Dec 09:53:55 09:58:07 47° 100° (E) 10:02:17 434.975-435.025
DELFI C3 20 Dec 09:54:13 09:58:16 55° 100° (E) 10:02:16 145.870
AISAT 20 Dec 09:54:53 09:57:18 14° 94° (E) 09:59:43 437.250
50 SAT 20 Dec 09:58:00 09:59:41 12° 93° (E) 10:01:22 437.505
UNISAT 6 20 Dec 10:10:39 10:14:56 65° 76° (ENE) 10:19:19 437.425
HUMSAT D 20 Dec 10:14:52 10:18:35 27° 97° (E) 10:22:17 437.325/437.525
DUCHIFAT 1 20 Dec 10:16:26 10:20:26 45° 74° (ENE) 10:24:26 145.980
Oscar 11 20 Dec 10:17:12 10:21:31 62° 284° (WNW) 10:25:48 145.826/435.025
BUGSAT 1 20 Dec 10:17:49 10:21:36 36° 74° (ENE) 10:25:21 437.445
DOVE 4 20 Dec 10:19:10 10:23:34 36° 287° (WNW) 10:28:10 437.250
VERMONT LUNAR 20 Dec 10:23:56 10:25:36 13° 220° (SW) 10:27:15 437.305
UKube-1 20 Dec 10:25:24 10:29:43 72° 284° (WNW) 10:34:01 .
QB50P2 20 Dec 10:29:26 10:33:37 70° 76° (ENE) 10:37:49 145.880/145.840
DANDE 20 Dec 10:31:31 10:34:24 30° 286° (WNW) 10:38:03 436.750
CUBEBUG 2 20 Dec 10:33:43 10:38:21 67° 284° (WNW) 10:43:04 437.445
PHONESAT 2.4 20 Dec 10:34:54 10:37:24 18° 218° (SW) 10:39:54 2401.200-2431.200
AAUSAT CUBESAT 2 20 Dec 10:36:36 10:39:20 17° 291° (WNW) 10:42:04 437.432
POLYITAN 1 20 Dec 10:38:06 10:42:18 90° 88° (E) 10:46:32 437.675
RS-15 20 Dec 10:38:23 10:47:41 33° 106° (ESE) 10:56:53 29.354- 29.394
NANOSAT C BR1 20 Dec 10:40:42 10:44:54 85° 258° (WSW) 10:49:07 145.865
ANTELSAT 20 Dec 10:42:39 10:46:50 50° 260° (W) 10:51:09 437.575/2403.000
HO-68 20 Dec 10:43:48 10:49:19 25° 297° (WNW) 10:54:50 435.675
ZACube-1 20 Dec 10:46:16 10:50:47 67° 284° (WNW) 10:55:21 437.345
VELOX 1 20 Dec 10:46:43 10:51:06 61° 101° (E) 10:55:28 145.980
CINEMA 3 20 Dec 10:48:03 10:52:09 29° 288° (WNW) 10:56:23 145.822/145.860
ESTCUBE 1 20 Dec 10:48:22 10:51:55 23° 96° (E) 10:55:27 437.505/2401.250
QB50P1 20 Dec 10:55:09 10:59:16 55° 260° (W) 11:03:24 145.935-145.965
YUBILEINY 20 Dec 10:56:17 11:04:39 50° 79° (E) 11:12:58 435.215
UWE-3 20 Dec 11:13:23 11:17:17 28° 288° (WNW) 11:21:15 435.000/436.395/437.385
FUNcube-1 20 Dec 11:13:32 11:17:35 32° 287° (WNW) 11:21:40 145.935
O/OREOS (USA 219) 20 Dec 11:16:32 11:21:04 81° 252° (WSW) 11:25:36 437.305
TIGRISAT 20 Dec 11:19:47 11:22:51 19° 265° (W) 11:25:58 435.000
POPSAT HIP 1 20 Dec 11:24:37 11:28:02 24° 263° (W) 11:31:27 437.405
AISAT 20 Dec 11:29:54 11:34:01 39° 287° (WNW) 11:38:08 437.250
50 SAT 20 Dec 11:31:08 11:35:01 40° 286° (WNW) 11:38:54 437.505
JUGNU 20 Dec 11:31:19 11:34:57 17° 167° (SSE) 11:38:36 437.505
DX 1 20 Dec 11:32:10 11:33:54 12° 294° (WNW) 11:35:37 434.975-435.025
CUBEBUG 1 20 Dec 11:37:02 11:41:23 85° 102° (ESE) 11:45:43 437.445
HUMSAT D 20 Dec 11:51:00 11:54:10 20° 290° (WNW) 11:57:21 437.325/437.525
Oscar 19 20 Dec 11:52:10 11:54:21 13° 64° (ENE) 11:56:32 437.125/150
BUGSAT 1 20 Dec 11:55:19 11:57:10 13° 266° (W) 11:59:02 437.445
DUCHIFAT 1 20 Dec 11:55:30 11:56:28 11° 267° (W) 11:57:27 145.980
ISS 20 Dec 12:16:20 12:18:17 15° 127° (SE) 12:20:15 145.825
ESTCUBE 1 20 Dec 12:25:01 12:28:41 25° 289° (WNW) 12:32:20 437.505/2401.250
BEESAT 3 20 Dec 12:27:12 12:30:18 21° 110° (ESE) 12:33:27 437.485
SRMSAT 20 Dec 12:34:45 12:37:44 14° 165° (SSE) 12:40:43 437.500
TISAT 1 20 Dec 12:44:18 12:48:29 66° 284° (WNW) 12:52:41 437.305
SPROUT 20 Dec 12:46:29 12:50:45 68° 284° (WNW) 12:55:01 437.525
RS-15 20 Dec 12:48:38 12:59:21 58° 303° (WNW) 13:10:06 29.354- 29.394
YUBILEINY 20 Dec 12:53:52 13:00:56 29° 275° (W) 13:08:01 435.215
BEESAT 2 20 Dec 13:05:44 13:09:43 57° 115° (ESE) 13:13:48 435.950
JUGNU 20 Dec 13:18:44 13:23:23 24° 177° (S) 13:28:01 437.505
SWISSCUBE 20 Dec 13:21:49 13:26:18 41° 99° (E) 13:30:46 437.505
ITUPSAT 1 20 Dec 13:22:13 13:26:38 37° 99° (E) 13:31:01 437.325
PCSat 20 Dec 13:27:58 13:33:13 56° 111° (ESE) 13:38:31 145.827
Oscar 19 20 Dec 13:28:01 13:33:05 63° 259° (WSW) 13:38:12 437.125/150
Gurwin Techsat 1B 20 Dec 13:37:04 13:41:43 32° 70° (ENE) 13:46:22 435.225
M-CUBED/EXP-1 PRIME 20 Dec 13:40:26 13:43:25 19° 98° (E) 13:46:14 437.505
ITAMSAT 1 20 Dec 13:43:04 13:48:11 64° 74° (ENE) 13:53:18 435.822/435.867
HORYU 2 20 Dec 13:45:43 13:47:08 11° 66° (ENE) 13:48:33 437.375
BEESAT 20 Dec 13:46:40 13:51:27 74° 102° (ESE) 13:56:10 436.000
ISS 20 Dec 13:51:32 13:54:37 36° 320° (NW) 13:57:42 145.825
AO-7 20 Dec 13:58:22 14:03:00 16° 55° (NE) 14:07:37 29.400- 29.500
BEESAT 3 20 Dec 14:04:53 14:08:18 25° 305° (NW) 14:11:47 437.485
AIST 2 20 Dec 14:09:19 14:13:28 59° 300° (WNW) 14:17:42 435.215
SRMSAT 20 Dec 14:21:47 14:26:17 22° 174° (S) 14:30:46 437.500
BEESAT 2 20 Dec 14:46:50 14:48:19 12° 311° (NW) 14:49:48 435.950
AUBIESAT-1 20 Dec 14:48:55 14:53:06 60° 289° (WNW) 14:56:53 437.475
STARS 20 Dec 14:51:24 14:55:40 46° 100° (E) 14:59:56 437.465
KKS-1 20 Dec 14:54:26 14:58:55 80° 102° (ESE) 15:03:23 437.445
SWISSCUBE 20 Dec 15:00:51 15:03:47 17° 293° (WNW) 15:06:43 437.505
ITUPSAT 1 20 Dec 15:01:00 15:04:12 18° 292° (WNW) 15:07:23 437.325
JUGNU 20 Dec 15:07:22 15:11:50 22° 187° (S) 15:16:17 437.505
RS-15 20 Dec 15:09:02 15:14:46 15° 330° (NNW) 15:20:34 29.354- 29.394
PCSat 20 Dec 15:13:23 15:16:57 18° 307° (NW) 15:20:32 145.827
M-CUBED/EXP-1 PRIME 20 Dec 15:14:52 15:18:26 26° 295° (WNW) 15:21:44 437.505
Gurwin Techsat 1B 20 Dec 15:17:19 15:21:37 25° 264° (W) 15:25:56 435.225
HORYU 2 20 Dec 15:18:56 15:23:16 54° 259° (W) 15:27:40 437.375
ITAMSAT 1 20 Dec 15:26:19 15:28:00 12° 267° (W) 15:29:41 435.822/435.867
JAS-2 20 Dec 15:34:57 15:41:03 27° 67° (ENE) 15:46:47 435.910
AO-7 20 Dec 15:46:16 15:54:35 87° 72° (ENE) 16:02:58 29.400- 29.500
MOZHAYETS 4 20 Dec 16:04:58 16:06:24 11° 92° (E) 16:07:50
SRMSAT 20 Dec 16:10:19 16:14:53 23° 184° (S) 16:19:26 437.500
AIST 1 20 Dec 16:26:17 16:30:35 57° 94° (E) 16:34:52
STARS 20 Dec 16:29:40 16:31:42 13° 293° (WNW) 16:33:44 437.465
Cubesat XI-IV 20 Dec 16:39:47 16:42:28 14° 65° (ENE) 16:45:08 437.490
GONETS M04 20 Dec 16:51:06 16:59:44 60° 81° (E) 17:08:15
JUGNU 20 Dec 16:57:32 17:00:13 13° 196° (SSW) 17:02:54 437.505
CUTE-I 20 Dec 17:10:59 17:15:29 29° 69° (ENE) 17:19:59 437.470
JAS-2 20 Dec 17:18:06 17:25:39 54° 260° (W) 17:32:43 435.910
MOZHAYETS 4 20 Dec 17:39:23 17:43:52 52° 285° (WNW) 17:48:18
AO-7 20 Dec 17:43:52 17:48:06 15° 267° (W) 17:52:23 29.400- 29.500
SRMSAT 20 Dec 18:00:03 18:03:26 16° 194° (SSW) 18:06:49 437.500
MaSat-1 20 Dec 18:04:28 18:05:26 12° 63° (ENE) 18:06:24 437.345
Cubesat XI-IV 20 Dec 18:16:43 18:21:59 61° 259° (WSW) 18:27:15 437.490
PRISM 20 Dec 18:25:28 18:29:36 66° 102° (ESE) 18:33:40 437.425
GONETS M04 20 Dec 18:49:22 18:55:47 24° 277° (W) 19:02:11
CUTE-I 20 Dec 18:50:54 18:55:25 28° 263° (W) 18:59:57 437.470
CUBESAT XI-V 20 Dec 19:02:04 19:06:41 79° 102° (ESE) 19:11:16 437.345
STRAND 1 20 Dec 19:11:07 19:16:13 77° 103° (ESE) 19:21:18 437.568
